Vertical_Velocity
-2 -2 -0 2 1 0 -3 -2 -1 -2 -3 -0 0 -1 -4 -4 1 -4 -1 -2 1 5 2 -2 2 1 5 -1 -3 7 10 -4 -22 -0 -26 30 12 6 2 2 -5 -18 -18 -8 -6
1 -1 -2 2 0 -1 -1 -5 -1 -1 -2 -1 -1 -2 -3 -6 -5 4 -1 -7 1 -2 -1 3 -2 5 -2 -2 -3 -5 -2 -14 -1 -10 -18 10 35 7 4 -5 -6 -10 13 4 4
-4 2 -3 -4 -1 1 1 -1 -3 -3 -4 -1 -3 -4 -0 -5 -4 -1 1 -2 -4 -0 1 0 -0 2 -5 7 0 -3 -17 1 -15 -14 24 6 15 31 25 8 2 3 7 -7 -8
2 -2 -1 2 1 0 1 -1 1 1 -4 -4 -2 -3 -2 -3 0 -5 -9 -3 -2 2 0 -1 5 -0 -1 -10 4 2 -2 4 -10 -3 8 -3 13 -1 14 11 11 4 5 1 -10
-0 -1 -1 -1 -2 3 -2 -1 -1 -2 -2 -4 0 -2 0 -6 2 6 1 -3 2 -4 -1 -0 2 10 0 -7 4 0 -4 2 -2 -4 -4 1 5 -8 -1 7 10 8 -1 10 -7
-1 -2 -3 -2 2 1 -2 0 0 -3 -1 -1 -4 -2 -3 -5 -5 -3 6 -2 0 -2 -4 -4 4 6 9 4 3 6 6 -8 -3 -1 3 10 -9 27 -16 -11 1 -5 1 1 -4
-1 3 -2 -2 -7 -1 2 -0 -2 3 1 -7 -5 -4 -5 1 -4 1 -2 -2 1 -5 -5 0 -2 3 11 -0 6 5 8 7 -1 -5 -15 13 -3 -10 6 -4 -10 -5 2 -0 -1
-2 -1 2 1 1 -1 -0 -0 1 -3 -0 -4 -7 -0 -8 -2 0 2 3 -1 -1 -2 -2 5 3 -2 1 0 -7 6 13 4 -11 -2 -14 32 -31 -25 4 2 -0 1 12 0 -7
-2 2 -1 3 1 -6 -1 0 -3 -1 -1 -1 -3 -6 -1 3 -2 -8 0 -1 -1 -1 -1 -1 7 -3 10 3 -1 1 -5 1 -11 -4 -9 23 -5 -16 -1 1 6 10 12 3 -9
-4 -3 -0 -1 1 -3 -6 -3 1 3 -6 4 -9 -3 5 -4 -7 -7 -1 1 0 3 -1 -5 5 1 0 7 -5 -5 -2 -7 -11 -12 24 8 -12 -1 -9 4 5 -10 -6 -4 -6
0 -6 -4 2 2 -3 -2 -1 5 0 0 2 3 0 -5 -4 -0 3 6 -4 0 -4 -3 -2 4 -7 -8 5 1 1 12 11 0 1 9 -5 -7 2 -6 18 -6 -9 -11 2 1
1 -1 -3 3 3 -1 -6 2 -8 -7 -25 8 -2 -12 4 4 -1 -1 -5 -1 1 -3 -1 6 -4 -7 -4 -5 -6 4 1 -12 -14 -1 35 -6 -6 18 7 -7 8 7 3 -3 10
-1 -2 3 -4 -2 -0 -3 3 -7 1 -7 -1 -0 -0 -3 -0 -4 -2 -1 -3 -3 4 1 13 -9 2 13 -14 -0 -2 5 -5 -4 -1 -31 12 -14 1 -3 -14 -6 7 9 7 7
-1 -0 -2 5 -5 -0 -0 -2 1 -1 -8 -7 -4 -5 -0 4 -2 -0 3 0 -2 -1 -0 -4 -1 6 -5 -2 13 -1 -0 5 -9 8 -9 43 -16 9 -8 -10 0 -13 26 10 4
-2 -0 -0 -1 -0 0 -2 -4 1 1 -1 -0 -4 -0 -2 1 5 -3 0 2 -3 -7 1 -7 -5 -4 8 -26 24 -34 16 13 4 5 8 -21 20 -35 9 -2 -3 -7 3 7 1
-4 2 -0 -5 5 -2 -1 -0 -1 -5 -17 5 -2 -3 -3 5 1 -2 -2 2 0 6 -6 4 -3 -6 -8 -0 12 -5 1 -6 -6 0 4 -15 23 -18 -11 -10 -2 20 16 3 12
-1 -2 -3 2 9 -1 0 1 -3 -1 4 7 -4 7 2 8 19 -2 -1 -3 -8 -1 -1 2 -2 -2 6 -4 -0 10 -3 -3 -2 6 -4 -13 7 -24 -17 -9 1 5 -2 18 11
-5 -2 2 3 5 -1 2 1 7 4 4 21 -2 -4 -7 -0 21 -1 -8 -5 1 -2 -1 2 -10 10 0 -11 -4 -11 -7 -4 -4 0 0 5 -3 -45 -9 4 10 18 -1 4 -4
-5 -1 2 6 4 3 -1 3 -3 -2 23 1 11 -3 -4 -9 22 19 -2 6 1 -0 -9 3 -3 3 -11 12 15 -10 13 -11 -2 2 1 -5 -9 1 2 -10 31 -1 4 -7 -2
-5 -8 9 3 4 2 1 -14 -14 8 2 15 4 5 6 31 9 -1 21 6 -10 16 15 -4 -4 6 2 13 -1 -12 10 5 -1 2 0 -3 -3 -1 4 -1 18 9 6 16 12
-7 -11 13 6 3 6 -19 -18 -9 4 10 7 1 1 -0 11 2 1 8 0 0 4 5 3 7 -18 27 1 3 -0 9 1 -1 3 2 -0 -5 2 15 10 18 12 11 15 14
-4 -8 1 18 -2 -2 -15 3 4 -12 -0 -1 7 -4 1 3 -1 4 12 -2 -4 -3 0 -4 -1 -2 -15 -4 5 7 8 -5 1 2 3 5 -21 30 17 19 3 -1 9 1 -2
-6 -5 0 2 17 -5 8 -5 -2 -8 5 -12 8 16 -2 -6 4 4 -0 -4 -8 -3 1 2 3 -1 -10 16 24 -19 -14 10 -2 6 -6 3 -5 -6 19 -8 14 17 9 -4 -2
0 -5 -4 -1 0 20 22 -10 -7 -8 -9 -3 -1 9 1 2 0 -11 11 -7 15 1 -2 -4 -5 -4 1 6 14 -13 15 1 3 3 -6 -10 9 -19 26 -6 3 -4 -7 11 0
0 -10 2 1 10 10 4 10 14 2 1 -1 -8 -2 -6 3 13 4 -3 4 18 8 6 0 -5 6 -4 -5 4 3 -9 -7 0 -8 -0 -1 4 6 -14 -6 38 10 2 1 0
-1 -0 8 5 2 0 12 -11 7 15 3 1 19 8 -6 9 14 1 4 6 1 4 6 -7 -4 2 -7 1 -0 -7 7 16 16 8 0 -9 3 -10 8 7 4 1 4 6 -2
2 4 2 2 5 -3 5 1 -16 18 0 -2 1 5 2 16 5 2 -3 -4 -9 -4 1 -4 3 -3 -2 -2 -6 0 -8 2 8 1 -1 5 12 -4 7 -6 16 7 3 0 2
Height
3102 3101 3099 3099 3098 3097 3097 3095 3093 3092 3092 3093 3091 3089 3089 3089 3088 3084 3085 3086 3086 3087 3088 3090 3091 3095 3095 3097 3100 3104 3104 3099 3102 3104 3099 3105 3109 3105 3104 3103 3102 3104 3104 3103 3103
3098 3097 3095 3094 3094 3092 3092 3091 3089 3088 3087 3086 3085 3083 3083 3083 3081 3081 3079 3079 3079 3080 3082 3083 3087 3089 3089 3091 3095 3095 3094 3091 3096 3098 3097 3103 3105 3103 3102 3098 3099 3100 3099 3099 3100
3092 3092 3091 3089 3089 3088 3087 3086 3085 3084 3083 3081 3080 3078 3078 3077 3077 3075 3074 3073 3074 3074 3075 3077 3081 3082 3082 3085 3087 3087 3083 3089 3091 3092 3095 3099 3100 3102 3100 3097 3097 3098 3095 3096 3097
3089 3087 3086 3086 3084 3084 3084 3082 3079 3079 3078 3076 3076 3073 3072 3074 3073 3069 3068 3069 3069 3069 3070 3072 3075 3075 3076 3077 3082 3083 3084 3086 3088 3088 3091 3094 3095 3093 3095 3095 3095 3094 3093 3092 3095
3084 3084 3082 3081 3080 3078 3077 3078 3077 3073 3071 3070 3069 3069 3069 3068 3069 3064 3061 3062 3065 3063 3065 3068 3068 3071 3068 3073 3079 3077 3078 3082 3084 3085 3086 3089 3089 3090 3088 3090 3092 3092 3091 3090 3089
3079 3078 3077 3076 3075 3074 3072 3072 3071 3070 3067 3064 3063 3062 3064 3063 3059 3062 3057 3055 3058 3056 3059 3063 3065 3068 3069 3069 3072 3075 3077 3077 3078 3080 3082 3084 3083 3085 3084 3086 3087 3088 3086 3087 3087
3074 3073 3072 3072 3070 3068 3066 3065 3065 3063 3063 3062 3057 3056 3058 3058 3054 3053 3050 3051 3052 3051 3053 3059 3060 3059 3062 3062 3067 3069 3070 3070 3069 3073 3075 3079 3075 3076 3080 3082 3082 3082 3081 3082 3082
3069 3068 3067 3066 3065 3062 3061 3061 3060 3059 3057 3056 3053 3050 3051 3050 3048 3048 3046 3046 3046 3046 3048 3054 3056 3053 3056 3058 3061 3062 3063 3062 3062 3067 3069 3074 3065 3071 3074 3076 3076 3077 3077 3076 3077
3064 3063 3063 3062 3061 3058 3056 3055 3055 3053 3052 3051 3049 3046 3046 3046 3043 3042 3042 3042 3041 3041 3042 3047 3049 3049 3053 3055 3057 3057 3055 3055 3058 3062 3065 3067 3062 3065 3068 3069 3069 3070 3072 3072 3072
3058 3058 3057 3057 3055 3053 3052 3049 3049 3048 3048 3046 3042 3044 3041 3040 3036 3036 3038 3038 3038 3038 3039 3041 3044 3044 3050 3052 3051 3053 3053 3053 3054 3056 3061 3062 3057 3060 3063 3063 3063 3062 3066 3067 3065
3053 3053 3052 3052 3049 3047 3048 3046 3046 3043 3042 3040 3037 3036 3032 3033 3032 3033 3034 3033 3036 3036 3036 3038 3040 3039 3045 3050 3052 3051 3051 3051 3052 3051 3056 3055 3051 3052 3055 3058 3060 3059 3060 3061 3060
3048 3048 3048 3047 3045 3044 3042 3040 3037 3037 3032 3032 3030 3026 3029 3026 3026 3027 3027 3030 3033 3033 3037 3037 3033 3038 3042 3046 3046 3049 3047 3047 3045 3045 3054 3047 3044 3045 3049 3051 3053 3054 3054 3056 3057
3041 3043 3044 3041 3042 3041 3038 3037 3033 3031 3026 3026 3022 3022 3023 3024 3022 3022 3023 3024 3031 3032 3034 3032 3030 3034 3035 3039 3042 3042 3045 3045 3046 3042 3043 3046 3040 3041 3043 3044 3046 3047 3049 3051 3051
3035 3036 3037 3037 3039 3036 3033 3033 3030 3030 3025 3018 3017 3018 3018 3017 3019 3020 3020 3023 3026 3029 3031 3028 3027 3030 3029 3032 3039 3038 3041 3043 3043 3043 3044 3041 3040 3036 3038 3039 3038 3041 3043 3045 3047
3028 3031 3032 3030 3030 3033 3030 3030 3028 3029 3029 3016 3015 3016 3017 3018 3017 3019 3019 3019 3021 3025 3029 3024 3024 3023 3025 3027 3035 3035 3037 3035 3035 3038 3040 3032 3036 3030 3032 3032 3032 3035 3038 3040 3041
3021 3024 3026 3024 3028 3026 3027 3028 3028 3031 3021 3015 3013 3013 3014 3015 3015 3016 3017 3018 3021 3023 3022 3020 3019 3020 3019 3025 3029 3033 3030 3031 3033 3036 3034 3031 3034 3024 3025 3025 3026 3027 3030 3034 3038
3015 3017 3020 3020 3023 3020 3023 3026 3029 3024 3014 3012 3011 3012 3012 3013 3012 3013 3015 3016 3017 3021 3020 3018 3015 3014 3017 3020 3025 3029 3030 3032 3033 3032 3028 3029 3030 3022 3021 3022 3024 3019 3020 3029 3034
3008 3010 3013 3015 3017 3017 3019 3025 3020 3012 3011 3011 3010 3009 3011 3010 3011 3009 3012 3013 3014 3016 3018 3016 3014 3012 3013 3017 3022 3023 3026 3029 3031 3032 3026 3026 3021 3014 3015 3019 3023 3024 3024 3026 3028
3000 3003 3005 3009 3011 3013 3016 3017 3009 3009 3010 3009 3006 3006 3007 3006 3011 3009 3008 3009 3012 3013 3017 3015 3013 3012 3011 3017 3021 3019 3023 3030 3031 3030 3029 3021 3016 3012 3014 3014 3020 3020 3022 3024 3026
2996 2996 2999 3005 3005 3007 3010 3003 3002 3005 3006 3007 3006 3004 3004 3005 3007 3008 3008 3009 3010 3010 3013 3013 3013 3010 3012 3016 3017 3018 3023 3027 3028 3026 3025 3014 3012 3014 3011 3012 3016 3018 3021 3023 3026
2993 2990 2996 2997 2999 3002 2998 2996 2997 3003 3006 3008 3006 3003 3001 3003 3004 3005 3007 3008 3008 3010 3011 3012 3014 3011 3012 3011 3014 3016 3016 3020 3023 3023 3018 3016 3010 3012 3010 3009 3010 3013 3016 3019 3020
2989 2987 2993 2995 2996 2994 2991 2992 2995 2999 2999 3001 3002 3002 3003 3002 3002 3004 3006 3005 3007 3009 3009 3010 3010 3008 3007 3009 3011 3012 3013 3016 3018 3017 3016 3014 3010 3008 3013 3009 3012 3015 3015 3014 3016
2984 2983 2989 2990 2989 2987 2988 2989 2991 2994 2996 2997 3000 3002 3003 3003 3005 3004 3005 3003 3006 3007 3008 3009 3008 3006 3004 3007 3007 3007 3010 3012 3014 3016 3012 3014 3009 3006 3010 3010 3010 3014 3014 3015 3017
2982 2981 2983 2984 2985 2983 2986 2986 2987 2990 2991 2993 2995 2997 2999 3001 3003 3003 3003 3003 3005 3004 3004 3005 3006 3007 3005 3003 3005 3003 3003 3006 3008 3009 3009 3007 3007 3007 3009 3009 3011 3016 3015 3016 3018
2977 2976 2980 2979 2981 2982 2982 2982 2981 2986 2988 2991 2992 2995 2996 2998 3000 3001 3002 3002 3004 3002 3000 3002 3002 3002 3000 3000 3000 2999 2997 3000 3000 3003 3005 3003 3003 3006 3007 3008 3012 3014 3013 3014 3016
2972 2974 2976 2975 2977 2977 2979 2976 2976 2981 2983 2986 2989 2992 2995 2996 2997 2997 2996 2997 2998 2999 2999 3000 3000 2998 2995 2996 2994 2993 2992 2993 2996 2998 2999 3001 3002 3002 3004 3006 3003 3010 3011 3011 3012
2967 2970 2971 2969 2975 2975 2975 2976 2974 2979 2981 2982 2983 2985 2988 2992 2991 2992 2993 2995 2996 2997 2998 2999 2999 2997 2993 2991 2989 2989 2988 2989 2991 2991 2995 2996 2999 2999 3001 3003 3005 3006 3005 3006 3009